Weather History for KJMS - November, 2011

Change the Weather History Date:

Tuesday, November 22, 2011

  Actual Average Record
Temperature  
Mean Temperature 33 °F 24 °F  
Max Temperature 48 °F 33 °F 64 °F (1939)
Min Temperature 18 °F 15 °F -14 °F (1896)
Degree Days  
Heating Degree Days 32 41  
Month to date heating degree days 719 768  
Since 1 July heating degree days 1441 1735  
Cooling Degree Days 0 0  
Month to date cooling degree days 0 0  
Year to date cooling degree days 497 446  
Moisture  
Dew Point 23 °F    
Average Humidity 71    
Maximum Humidity 96    
Minimum Humidity 45    
Precipitation  
Precipitation 0.00 in 0.02 in 0.33 in (1955)
Month to date precipitation 0.08 0.51  
Year to date precipitation 21.58 18.25  
Sea Level Pressure  
Sea Level Pressure 29.98 in    
Wind  
Wind Speed 8 mph (South)    
Max Wind Speed 16 mph    
Max Gust Speed 20 mph    
Visibility 6 miles    
Events Fog    
T = Trace of Precipitation, MM = Missing Value Source: NWS Daily Summary

Daily Weather History Graph

Daily Weather History Graph

Search for Another Location

Airport or City:

Trip Planner

Search our weather history database for the weather conditions in past years. The results will help you decide how hot, cold, wet, or windy it might be!

Date:

Astronomy

Nov. 22, 2011 Rise Set
Actual Time 7:47 AM CST 4:53 PM CST
Civil Twilight 7:13 AM CST 5:27 PM CST
Nautical Twilight 6:36 AM CST 6:04 PM CST
Astronomical Twilight 6:00 AM CST 6:41 PM CST
Moon 4:31 AM CST (11/22) 3:00 PM CST (11/22)
Length of Visible Light 10h 13m
Length of Day
9h 06m
Waning Crescent, 9% of the Moon is Illuminated
Nov 22
Waning Crescent
Nov 25
New
Dec 2
First Quarter
Dec 10
Full
Dec 17
Last Quarter

Hourly Weather History & Observations

Time (CST) Temp. Windchill Dew Point Humidity Pressure Visibility Wind Dir Wind Speed Gust Speed Precip Events Conditions
12:56 AM 19.9 °F 10.1 °F 18.0 °F 92% 30.07 in 8.0 mi South 8.1 mph - N/A   Clear
1:56 AM 21.2 °F 11.7 °F 17.6 °F 86% 29.99 in 8.0 mi SSE 8.1 mph - N/A   Clear
2:56 AM 19.9 °F 10.1 °F 18.0 °F 92% 30.05 in 7.0 mi South 8.1 mph - N/A   Clear
3:53 AM 21.2 °F 8.9 °F 19.4 °F 93% 29.98 in 6.0 mi South 12.7 mph - N/A   Scattered Clouds
3:56 AM 21.0 °F 8.1 °F 19.0 °F 92% 30.05 in 5.0 mi South 13.8 mph - N/A   Mostly Cloudy
4:07 AM 21.2 °F 9.5 °F 21.2 °F 100% 29.99 in 1.8 mi South 11.5 mph - N/A   Mostly Cloudy
4:27 AM 21.2 °F 10.1 °F 21.2 °F 100% 29.99 in 0.8 mi South 10.4 mph - N/A   Mist
4:56 AM 23.0 °F 12.4 °F 21.9 °F 96% 30.05 in 0.5 mi South 10.4 mph - N/A Fog Light Freezing Fog
5:56 AM 24.1 °F 12.5 °F 23.0 °F 96% 30.03 in 0.5 mi South 12.7 mph - N/A Fog Light Freezing Fog
6:56 AM 25.0 °F 12.2 °F 23.0 °F 92% 30.03 in 0.5 mi South 16.1 mph - N/A Fog Light Freezing Fog
7:56 AM 24.8 °F 15.3 °F 23.0 °F 93% 29.96 in 0.8 mi SSW 9.2 mph - N/A   Mist
8:56 AM 24.1 °F 16.0 °F 21.9 °F 91% 30.02 in 0.5 mi South 6.9 mph - N/A Fog Light Freezing Fog
9:18 AM 24.8 °F 16.9 °F 21.2 °F 86% 29.95 in 2.0 mi South 6.9 mph - N/A   Overcast
9:27 AM 24.8 °F 17.9 °F 21.2 °F 86% 29.95 in 1.5 mi SSW 5.8 mph - N/A   Mostly Cloudy
9:40 AM 24.8 °F 17.9 °F 23.0 °F 93% 29.95 in 2.5 mi South 5.8 mph - N/A   Mostly Cloudy
9:43 AM 24.8 °F 16.9 °F 23.0 °F 93% 29.95 in 3.0 mi South 6.9 mph - N/A   Scattered Clouds
9:56 AM 26.1 °F 20.5 °F 24.1 °F 92% 30.02 in 4.0 mi SSW 4.6 mph - N/A   Partly Cloudy
10:56 AM 30.0 °F 23.2 °F 27.0 °F 88% 30.01 in 8.0 mi SW 6.9 mph - N/A   Clear
11:56 AM 39.0 °F 34.8 °F 28.0 °F 65% 29.99 in 10.0 mi WSW 5.8 mph - N/A   Clear
12:56 PM 42.1 °F 39.2 °F 27.0 °F 55% 29.98 in 10.0 mi WSW 4.6 mph - N/A   Clear
1:56 PM 46.0 °F 41.9 °F 27.0 °F 47% 29.96 in 10.0 mi SW 8.1 mph - N/A   Clear
2:56 PM 46.9 °F - 27.0 °F 46% 29.95 in 10.0 mi WSW 8.1 mph - N/A   Clear
3:56 PM 46.4 °F 42.9 °F 26.6 °F 46% 29.90 in 10.0 mi SSW 6.9 mph - N/A   Clear
4:56 PM 39.9 °F 37.8 °F 26.1 °F 58% 29.95 in 10.0 mi SSE 3.5 mph - N/A   Clear
5:56 PM 33.1 °F 26.1 °F 26.1 °F 75% 29.96 in 10.0 mi South 8.1 mph - N/A   Clear
6:56 PM 33.8 °F 27.7 °F 26.6 °F 75% 29.91 in 10.0 mi South 6.9 mph - N/A   Clear
8:56 PM 25.0 °F 19.3 °F 21.9 °F 88% 29.98 in 9.0 mi South 4.6 mph - N/A   Clear
9:56 PM 26.1 °F 20.5 °F 21.9 °F 84% 29.99 in 10.0 mi SSE 4.6 mph - N/A   Clear
10:56 PM 25.0 °F 16.3 °F 21.0 °F 85% 29.97 in 10.0 mi South 8.1 mph - N/A   Clear
11:56 PM 28.0 °F 18.6 °F 23.0 °F 81% 29.95 in 10.0 mi South 10.4 mph - N/A   Clear